Satellite: FO-70
Catalog number: 37380
Epoch time:      12011.34442304
Element set:    0077
Inclination:      071.9757 deg
RA of node:       300.5718 deg
Eccentricity:    0.0019422
Arg of perigee:   251.9794 deg
Mean anomaly:     107.9251 deg
Mean motion:   14.76648516 rev/day
Decay rate:       5.54e-06 rev/day^2
Epoch rev:           01268
Checksum:              300

/EX
SB KEPS @ AMSAT  $ORB12012.W
Orbital Elements  12012.WEATHER

HR AMSAT ORBITAL ELEMENTS FOR WEATHER SATELLITES
FROM WA5QGD FORT WORTH,TX January 12, 2012
Send SUBSCRIBE KEPS/UNSUBSCRIBE KEPS to majordomo@amsat.org only
BID: ORB12012.W
TO ALL RADIO AMATEURS BT

Satellite: NOAA-10
Catalog number: 16969
Epoch time:      12012.64800777
Element set:     777
Inclination:      098.6000 deg
RA of node:       044.3587 deg
Eccentricity:    0.0011829
Arg of perigee:   336.8665 deg
Mean anomaly:     023.1977 deg
Mean motion:   14.27519951 rev/day
Decay rate:        1.8e-07 rev/day^2
Epoch rev:           31753
Checksum:              322

Satellite: NOAA-11
Catalog number: 19531
Epoch time:      12012.30325286
Element set:     778
Inclination:      098.7423 deg
RA of node:       100.7191 deg
Eccentricity:    0.0010792
Arg of perigee:   315.4378 deg
Mean anomaly:     044.5935 deg
Mean motion:   14.14948802 rev/day
Decay rate:        5.2e-07 rev/day^2
Epoch rev:           20232
Checksum:              278

Satellite: NOAA-12
Catalog number: 21263
Epoch time:      12012.66126041
Element set:     266
Inclination:      098.7395 deg
RA of node:       034.9744 deg
Eccentricity:    0.0012985
Arg of perigee:   298.0035 deg
Mean anomaly:     061.9830 deg
Mean motion:   14.25471689 rev/day
Decay rate:        8.8e-07 rev/day^2
Epoch rev:            7425
Checksum:              306

Satellite: MET-3/5
Catalog number: 21655
Epoch time:      12011.89504466
Element set:    0310
Inclination:      082.5580 deg
RA of node:       263.3082 deg
Eccentricity:    0.0013731
Arg of perigee:   000.7479 deg
Mean anomaly:     359.3712 deg
Mean motion:   13.17035125 rev/day
Decay rate:        5.1e-07 rev/day^2
Epoch rev:           98119
Checksum:              275

Satellite: MET-2/21
Catalog number: 22782
Epoch time:      12012.52892510
Element set:     308
Inclination:      082.5484 deg
RA of node:       156.7994 deg
Eccentricity:    0.0021387
Arg of perigee:   229.8176 deg
Mean anomaly:     130.1106 deg
Mean motion:   13.83673741 rev/day
Decay rate:        8.7e-07 rev/day^2
Epoch rev:           92750
Checksum:              307

Satellite: OKEAN-4
Catalog number: 23317
Epoch time:      12011.95817534
Element set:    0800
Inclination:      082.5389 deg
RA of node:       178.1448 deg
Eccentricity:    0.0022306
Arg of perigee:   146.9491 deg
Mean anomaly:     213.3124 deg
Mean motion:   14.83520145 rev/day
Decay rate:      1.129e-05 rev/day^2
Epoch rev:           93149
Checksum:              287

Satellite: NOAA-14
Catalog number: 23455
Epoch time:      12012.65297605
Element set:     749
Inclination:      098.8375 deg
RA of node:       098.0696 deg
Eccentricity:    0.0010110
Arg of perigee:   047.5571 deg
Mean anomaly:     312.6457 deg
Mean motion:   14.13869828 rev/day
Decay rate:        4.4e-07 rev/day^2
Epoch rev:           87867
Checksum:              333

Satellite: NOAA-15
Catalog number: 25338
Epoch time:      12012.62253023
Element set:      98
Inclination:      098.6762 deg
RA of node:       001.1301 deg
Eccentricity:    0.0010280
Arg of perigee:   199.6031 deg
Mean anomaly:     160.4739 deg
Mean motion:   14.25018809 rev/day
Decay rate:       2.33e-06 rev/day^2
Epoch rev:           71055
Checksum:              261

Satellite: RESURS
Catalog number: 25394
Epoch time:      12011.96890869
Element set:    0991
Inclination:      098.3080 deg
RA of node:       008.5824 deg
Eccentricity:    0.0001737
Arg of perigee:   014.1804 deg
Mean anomaly:     345.9425 deg
Mean motion:   14.24268785 rev/day
Decay rate:        5.6e-07 rev/day^2
Epoch rev:           70202
Checksum:              304

Satellite: FENGYUN1
Catalog number: 25730
Epoch time:      12011.89297732
Element set:     512
Inclination:      098.8335 deg
RA of node:       333.7460 deg
Eccentricity:    0.0021470
Arg of perigee:   090.9708 deg
Mean anomaly:     269.3918 deg
Mean motion:   14.09151027 rev/day
Decay rate:       7.17e-06 rev/day^2
Epoch rev:           65245
Checksum:              301

Satellite: OKEAN-0
Catalog number: 25860
Epoch time:      12011.92047268
Element set:    0533
Inclination:      097.9129 deg
RA of node:       337.9981 deg
Eccentricity:    0.0001758
Arg of perigee:   054.6544 deg
Mean anomaly:     305.4829 deg
Mean motion:   14.74050558 rev/day
Decay rate:       5.36e-06 rev/day^2
Epoch rev:           67140
Checksum:              313

Satellite: NOAA-16
Catalog number: 26536
Epoch time:      12012.65663094
Element set:     582
Inclination:      099.1167 deg
RA of node:       052.2062 deg
Eccentricity:    0.0011012
Arg of perigee:   161.0847 deg
Mean anomaly:     199.0744 deg
Mean motion:   14.12696856 rev/day
Decay rate:       4.36e-06 rev/day^2
Epoch rev:           58293
Checksum:              303

